Regional Weather Roundup
Issued by NWS

Home | Current Version | Previous Version | Text Only | Print | Product List | Glossary On
Versions: 1 2 3 4 5 6 7 8 9 10 11 12 13 14 15 16 17 18 19 20 21 22 23 24 25 26 27 28 29 30 31 32 33 34 35 36 37 38 39 40 41 42 43 44 45 46 47 48 49 50
000
ASUS46 KSEW 020810
RWRWA

WASHINGTON REGIONAL WEATHER ROUNDUP
NATIONAL WEATHER SERVICE SEATTLE WA
100 AM PDT THU APR 02 2015

NOTE:"FAIR" INDICATES FEW OR NO CLOUDS BELOW 12,000 FEET WITH NO
SIGNIFICANT WEATHER AND/OR OBSTRUCTIONS TO VISIBILITY.

WAZ505-507>509-020900-
SEATTLE, TACOMA, EVERETT, AND VICINITY

CITY           SKY/WX    TMP DP  RH WIND       PRES   REMARKS
EVERETT        MOCLDY    44  39  82 W6        30.33R
BOEING FIELD   MOCLDY    45  42  89 CALM      30.34S
RENTON         MOCLDY    43  39  86 SE5       30.34S
SEATAC AIRPORT MOCLDY    42  41  96 S5        30.34S
JBLM-MCCHORD   PTCLDY    37  37 100 S5        30.33S
PUYALLUP       CLOUDY    41  41 100 CALM      30.33S
BREMERTON      PTCLDY    37  37 100 CALM      30.36S
JBLM-FT LEWIS  MOCLDY    41  41  99 SE6       30.33R
TACOMA NARROWS MOCLDY    42  41  96 S5        30.33S
$$

WAZ001-503-506-510-514-515-020900-
NORTH INTERIOR

CITY           SKY/WX    TMP DP  RH WIND       PRES   REMARKS
BELLINGHAM     CLEAR     41  37  86 SE6       30.31R
FRIDAY HARBOR  CLEAR     36  34  92 W3        30.33R
EASTSOUND      CLEAR     39  37  93 CALM      30.30S
PORT ANGELES   CLEAR     41  36  82 W10       30.33S
NAS WHIDBEY    PTCLDY    49  42  77 W10       30.34R
ARLINGTON      CLOUDY    43  37  81 CALM      30.35R
BURLINGTON     CLEAR     41  39  93 MISG      30.33R
$$

WAZ020-022-039-040-504-511-512-020900-
SOUTHWEST INTERIOR

CITY           SKY/WX    TMP DP  RH WIND       PRES   REMARKS
SHELTON        MOCLDY    38  36  92 CALM      30.32R
OLYMPIA        MOCLDY    42  39  89 CALM      30.34R
CHEHALIS       CLOUDY    41  41 100 CALM      30.35R
KELSO          PTCLDY    43  37  81 CALM      30.40R
VANCOUVER      PTCLDY    42  40  92 CALM      30.37R FOG
SCAPPOOSE, OR  PTCLDY    37  36  96 CALM      30.36S FOG
PORTLAND, OR   MOCLDY    45  43  93 CALM      30.37S
$$

WAZ021-516-517-020900-
WASHINGTON COAST

CITY           SKY/WX    TMP DP  RH WIND       PRES   REMARKS
FORKS          CLOUDY    41  41 100 E3        30.35R
HOQUIAM        CLEAR     43  38  82 CALM      30.35R
ASTORIA, OR    LGT RAIN  42  41  96 SE3       30.36S
$$

WAZ019-023-024-040-518-519-020900-
CASCADE MOUNTAINS AND COLUMBIA GORGE

CITY           SKY/WX    TMP DP  RH WIND       PRES   REMARKS
TROUTDALE, OR  CLOUDY    46  41  82 SW3       30.36R
THE DALLES, OR CLEAR     44  34  67 NW3       30.29S
$$

WAZ026-027-041>044-520-521-020900-
EAST SLOPES

CITY           SKY/WX    TMP DP  RH WIND       PRES   REMARKS
OMAK           CLEAR     36  25  64 NW6       30.20R
WENATCHEE      PTCLDY    45  25  45 W13       30.21R
ELLENSBURG     CLOUDY    42  30  62 NW17      30.20S
YAKIMA         PTCLDY    41  27  57 W8        30.22R
$$

WAZ028-034-035-020900-
COLUMBIA BASIN

CITY           SKY/WX    TMP DP  RH WIND       PRES   REMARKS
EPHRATA        CLEAR     45  25  45 NW20G30   30.15R
MOSES LAKE     CLEAR     40  26  57 NW6       30.19R
PASCO          CLEAR     40  32  73 SE3       30.23S
HERMISTON, OR  CLEAR     42  32  67 SW15      30.24R
$$

WAZ036>038-020900-
NORTHEAST WASHINGTON

CITY           SKY/WX    TMP DP  RH WIND       PRES   REMARKS
SPOKANE GEIGER PTCLDY    33  31  92 S3        30.14R
SPOKANE FELTS  CLEAR     32  31  96 CALM      30.16R
FAIRCHILD AFB  CLEAR     31  30  94 CALM      30.13R
COEURDALENE,ID CLEAR     32  28  86 S7        30.15R
DEER PARK      CLEAR     24  23  96 CALM      30.15R
$$

WAZ029>033-020900-
SOUTHEAST WASHINGTON

CITY           SKY/WX    TMP DP  RH WIND       PRES   REMARKS
PULLMAN        CLEAR     33  31  92 NE3       30.16R
LEWISTON, ID   MOCLDY    39  36  89 S5        30.18S
WALLA WALLA    PTCLDY    42  32  67 S10       30.23R
PENDLETON, OR  MOCLDY    40  30  67 SW8       30.22R
$$



USA.gov is the U.S. government's official web portal to all federal, state and local government web resources and services.